Location: Newark
(45.6000°N, 10.5333°E)
Time: 09:14:16
(UTC+00:00)

N. Korean satellite - Visible Passes

Search period start: 16 October 2019 00:00
Search period end: 26 October 2019 00:00
Orbit: 455 x 508 km, 97.2° (Epoch: 15 October)

Date Brightness Start Highest point End Pass type
(mag) Time Alt. Az. Time Alt. Az. Time Alt. Az.
16 Oct 8.0 04:56:37 10° NNE 05:00:04 44° E 05:03:32 10° S visible
16 Oct 9.5 17:08:13 10° SSW 17:10:58 22° W 17:13:44 10° NW visible
17 Oct 9.5 04:31:47 10° NE 04:34:39 22° E 04:37:34 10° SSE visible
18 Oct 10.3 04:07:50 10° ENE 04:09:11 12° E 04:10:32 10° ESE visible
19 Oct 10.1 17:26:41 10° SW 17:28:35 14° W 17:30:29 10° WNW visible
20 Oct 8.5 04:48:54 10° NNE 04:52:15 36° E 04:55:39 10° SSE visible
20 Oct 9.0 17:00:07 10° SSW 17:03:05 27° W 17:06:07 10° NW visible
21 Oct 9.8 04:24:12 10° NE 04:26:50 19° E 04:29:28 10° SE visible
23 Oct 7.3 05:06:10 10° NNE 05:09:47 60° E 05:13:25 10° S visible
23 Oct 9.9 17:18:18 10° SW 17:20:40 17° W 17:23:03 10° NW visible
24 Oct 8.9 04:41:10 10° NNE 04:44:24 29° E 04:47:40 10° SSE visible
24 Oct 8.5 16:52:02 10° SSW 16:55:12 34° W 16:58:25 10° NNW visible
25 Oct 10.0 04:16:39 10° NE 04:18:56 16° E 04:21:13 10° SE visible
